Location: Julian California
(33.0790°N, 116.6010°W)
Time: 04:22:47
(UTC-07:00)

Cosmos 1656 Rocket - Pass Details

Date: 12 July 2018
Orbit: 796 x 846 km, 71.1° (Epoch: 24 September)

Event Time Altitude Azimuth Distance (km) Brightness Sun altitude
Rises 21:04:39 0° 187° (S) 3,376 6.5 -12.8°
Reaches altitude 10° 21:07:08 10° 182° (S) 2,441 5.8 -13.2°
Maximum altitude 21:12:34 54° 106° (ESE) 999 3.7 -14.1°
Drops below altitude 10° 21:17:59 10° 30° (NNE) 2,425 6.2 -15.0°
Sets 21:20:26 0° 26° (NNE) 3,353 7.0 -15.4°
